Powrót do katalogu

RADUGA 10

AktywnyŁącznośćGEO
NORAD 12897·PAYLOAD·🇷🇺 Russia

Wystrzelony Oct 9, 1981 z Baikonur Cosmodrome

Loading…

TLE

ŚwieżeSource: Space-Track

Epoka: Sep 14, 2026, 14:11 UTC

1 12897U 81102A   26257.59130774 -.00000170  00000-0  00000-0 0  9996
2 12897   6.5067 294.1708 0003862 265.9518  87.9482  1.00290726118239

Śledź RADUGA 10 w czasie rzeczywistym z AllMySat

Download on the App Store